Date String (YYYY-MM-DD hh:mm:ss) UTC,Instrument flags,Ambient pressure (hPa),Sample flow (lpm),Bypass flow (lpm),Sample temperature (°C),Ambient temperature (°C),ASC tube jacket temperature (°C),LED temperature (°C),Box temperature (°C),Sample RH (%),Span deviation,Mass concentration (μg/m³),Mass concentration (μg/m³),Mass concentration (μg/m³)
DateTimeUTC,F1_M11,P_M11,Q1_M11,Q2_M11,T1_M11,T2_M11,T3_M11,T4_M11,T5_M11,U1_M11,ZSPAN_M11,X0_M11,X2_M11,X1_M11
2023-04-22 06:00:00,,0833.7,5.00,0.00,22.9,21.3,00.0,31.3,24.5,18.5,0000.0,0004.78,0003.23,0002.72
2023-04-22 06:01:00,,0833.7,4.99,0.00,22.9,21.3,00.0,31.3,24.4,18.6,0000.0,0004.77,0003.21,0002.71
2023-04-22 06:02:00,,0833.7,4.99,0.00,22.9,21.3,00.0,31.3,24.5,18.6,0000.0,0004.57,0003.19,0002.69
2023-04-22 06:03:00,,0833.7,5.01,0.00,22.9,21.3,00.0,31.3,24.5,18.5,0000.0,0005.62,0003.20,0002.67
2023-04-22 06:04:00,,0833.6,5.00,0.00,22.9,21.4,00.0,31.3,24.5,18.5,0000.0,0005.63,0003.20,0002.66
2023-04-22 06:05:00,,0833.6,5.00,0.00,22.9,21.4,00.0,31.3,24.5,18.5,0000.0,0005.72,0003.21,0002.66
2023-04-22 06:06:00,,0833.7,5.01,0.00,22.9,21.3,00.0,31.3,24.5,18.5,0000.0,0005.72,0003.21,0002.66
2023-04-22 06:07:00,,0833.7,4.99,0.00,22.9,21.3,00.0,31.3,24.5,18.5,0000.0,0005.61,0003.20,0002.67
2023-04-22 06:08:00,,0833.6,5.00,0.00,22.9,21.4,00.0,31.3,24.5,18.5,0000.0,0005.60,0003.21,0002.67
2023-04-22 06:09:00,,0833.7,5.00,0.00,22.9,21.3,00.0,31.3,24.5,18.5,0000.0,0005.47,0003.17,0002.66
2023-04-22 06:10:00,,0833.7,4.99,0.00,22.9,21.4,00.0,31.2,24.5,18.5,0000.0,0005.37,0003.15,0002.66
2023-04-22 06:11:00,,0833.8,5.01,0.00,22.9,21.3,00.0,31.2,24.5,18.5,0000.0,0005.40,0003.15,0002.66
2023-04-22 06:12:00,,0833.7,5.01,0.00,22.9,21.3,00.0,31.2,24.5,18.7,0000.0,0005.56,0003.17,0002.67
2023-04-22 06:13:00,,0833.7,5.00,0.00,22.9,21.3,00.0,31.2,24.5,18.6,0000.0,0006.92,0003.18,0002.67
2023-04-22 06:14:00,,0833.8,4.99,0.00,22.9,21.3,00.0,31.2,24.5,18.5,0000.0,0005.96,0003.18,0002.67
2023-04-22 06:15:00,,0833.7,5.00,0.00,22.9,21.3,00.0,31.2,24.4,18.5,0000.0,0005.90,0003.17,0002.66
2023-04-22 06:16:00,,0833.7,5.00,0.00,22.9,21.3,00.0,31.2,24.4,18.5,0000.0,0005.72,0003.13,0002.64
2023-04-22 06:17:00,,0833.8,5.00,0.00,22.9,21.3,00.0,31.2,24.4,18.5,0000.0,0005.81,0003.14,0002.63
2023-04-22 06:18:00,,0833.8,5.00,0.00,22.8,21.3,00.0,31.2,24.5,18.4,0000.0,0006.89,0003.14,0002.63
2023-04-22 06:19:00,,0833.8,5.00,0.00,22.9,21.3,00.0,31.2,24.4,18.5,0000.0,0007.20,0003.17,0002.63
2023-04-22 06:20:00,,0833.8,5.00,0.00,22.8,21.3,00.0,31.2,24.4,18.5,0000.0,0007.30,0003.19,0002.64
2023-04-22 06:21:00,,0833.8,5.01,0.00,22.8,21.3,00.0,31.2,24.4,18.4,0000.0,0007.47,0003.23,0002.64
2023-04-22 06:22:00,,0833.8,5.01,0.00,22.8,21.3,00.0,31.2,24.4,18.4,0000.0,0007.67,0003.27,0002.65
2023-04-22 06:23:00,,0833.8,5.01,0.00,22.8,21.3,00.0,31.2,24.4,18.4,0000.0,0007.69,0003.26,0002.65
2023-04-22 06:24:00,,0833.8,5.00,0.00,22.8,21.3,00.0,31.2,24.4,18.4,0000.0,0007.02,0003.29,0002.65
2023-04-22 06:25:00,,0833.8,5.00,0.00,22.8,21.3,00.0,31.2,24.4,18.4,0000.0,0007.40,0003.30,0002.66
2023-04-22 06:26:00,,0833.8,5.00,0.00,22.8,21.2,00.0,31.2,24.4,18.7,0000.0,0007.57,0003.33,0002.68
2023-04-22 06:27:00,,0833.8,4.99,0.00,22.8,21.2,00.0,31.2,24.4,18.5,0000.0,0007.72,0003.37,0002.71
2023-04-22 06:28:00,,0833.8,4.99,0.00,22.8,21.2,00.0,31.2,24.4,18.4,0000.0,0007.89,0003.40,0002.73
2023-04-22 06:29:00,,0833.8,5.01,0.00,22.8,21.2,00.0,31.2,24.4,18.4,0000.0,0007.67,0003.44,0002.75
2023-04-22 06:30:00,,0833.8,5.00,0.00,22.8,21.2,00.0,31.2,24.4,18.4,0000.0,0007.27,0003.45,0002.76
2023-04-22 06:31:00,,0833.8,5.00,0.00,22.8,21.2,00.0,31.2,24.4,18.4,0000.0,0007.29,0003.46,0002.77
2023-04-22 06:32:00,,0833.8,5.00,0.00,22.8,21.2,00.0,31.2,24.4,18.4,0000.0,0007.31,0003.49,0002.79
2023-04-22 06:33:00,,0833.8,5.00,0.00,22.8,21.2,00.0,31.2,24.4,18.4,0000.0,0007.10,0003.49,0002.79
2023-04-22 06:34:00,,0833.8,5.00,0.00,22.8,21.2,00.0,31.1,24.3,18.4,0000.0,0006.97,0003.50,0002.80
2023-04-22 06:35:00,,0833.8,4.99,0.00,22.8,21.2,00.0,31.1,24.3,18.4,0000.0,0007.05,0003.48,0002.79
2023-04-22 06:36:00,,0833.8,5.00,0.00,22.8,21.2,00.0,31.1,24.4,18.3,0000.0,0006.99,0003.47,0002.80
2023-04-22 06:37:00,,0833.8,5.00,0.00,22.8,21.2,00.0,31.1,24.3,18.3,0000.0,0007.40,0003.46,0002.79
2023-04-22 06:38:00,,0833.8,5.00,0.00,22.8,21.2,00.0,31.1,24.4,18.3,0000.0,0007.32,0003.44,0002.77
2023-04-22 06:39:00,,0833.8,4.99,0.00,22.8,21.2,00.0,31.1,24.3,18.3,0000.0,0007.14,0003.43,0002.76
2023-04-22 06:40:00,,0833.8,5.00,0.00,22.8,21.2,00.0,31.1,24.3,18.3,0000.0,0007.11,0003.44,0002.77
2023-04-22 06:41:00,,0833.8,4.99,0.00,22.8,21.2,00.0,31.1,24.3,18.3,0000.0,0007.94,0003.45,0002.77
2023-04-22 06:42:00,,0833.8,5.01,0.00,22.7,21.2,00.0,31.1,24.3,18.3,0000.0,0008.15,0003.45,0002.77
2023-04-22 06:43:00,,0834.0,5.00,0.00,22.7,21.2,00.0,31.1,24.3,18.3,0000.0,0008.13,0003.42,0002.77
2023-04-22 06:44:00,,0834.0,5.00,0.00,22.7,21.2,00.0,31.1,24.3,18.3,0000.0,0008.15,0003.41,0002.76
2023-04-22 06:45:00,,0833.8,5.00,0.00,22.7,21.2,00.0,31.1,24.3,18.3,0000.0,0008.06,0003.40,0002.75
2023-04-22 06:46:00,,0833.9,5.01,0.00,22.7,21.2,00.0,31.1,24.3,18.3,0000.0,0007.99,0003.40,0002.78
2023-04-22 06:47:00,,0833.9,5.00,0.00,22.7,21.2,00.0,31.1,24.3,18.3,0000.0,0007.77,0003.42,0002.78
2023-04-22 06:48:00,,0833.9,5.00,0.00,22.7,21.2,00.0,31.1,24.3,18.3,0000.0,0007.70,0003.44,0002.79
2023-04-22 06:49:00,,0833.9,5.00,0.00,22.7,21.1,00.0,31.1,24.3,18.3,0000.0,0007.75,0003.46,0002.82
2023-04-22 06:50:00,,0833.9,5.00,0.00,22.7,21.1,00.0,31.1,24.3,18.3,0000.0,0007.75,0003.47,0002.83
2023-04-22 06:51:00,,0833.8,5.00,0.00,22.7,21.1,00.0,31.1,24.3,18.3,0000.0,0007.81,0003.48,0002.84
2023-04-22 06:52:00,,0833.8,4.99,0.00,22.7,21.1,00.0,31.1,24.3,18.2,0000.0,0007.16,0003.47,0002.86
2023-04-22 06:53:00,,0833.8,5.00,0.00,22.7,21.1,00.0,31.1,24.2,18.3,0000.0,0006.73,0003.47,0002.87
2023-04-22 06:54:00,,0833.9,5.00,0.00,22.7,21.1,00.0,31.1,24.2,18.3,0000.0,0006.88,0003.49,0002.90
2023-04-22 06:55:00,,0833.8,5.00,0.00,22.6,21.1,00.0,31.1,24.2,18.5,0000.0,0006.95,0003.52,0002.92
2023-04-22 06:56:00,,0833.8,5.00,0.00,22.6,21.1,00.0,31.0,24.2,18.5,0000.0,0006.95,0003.53,0002.95
2023-04-22 06:57:00,,0833.8,4.99,0.00,22.6,21.1,00.0,31.0,24.2,18.3,0000.0,0006.94,0003.53,0002.97
2023-04-22 06:58:00,,0833.8,4.99,0.00,22.6,21.0,00.0,31.0,24.2,18.3,0000.0,0006.94,0003.54,0003.00
2023-04-22 06:59:00,,0833.8,5.00,0.00,22.6,21.0,00.0,31.0,24.2,18.3,0000.0,0006.37,0003.57,0003.02
